Regional Weather Roundup
Issued by NWS

Home | Current Version | Previous Version | Graphics & Text | Print | Product List | Glossary On
Versions: 1 2 3 4 5 6 7 8 9 10 11 12 13 14 15 16 17 18 19 20 21 22 23 24 25 26 27 28 29 30 31 32 33 34 35 36 37 38 39 40 41 42 43 44 45 46 47 48 49 50
000
ASUS43 KMPX 171210
RWRMN
WEATHER ROUNDUP FOR MINNESOTA
NATIONAL WEATHER SERVICE TWIN CITIES/CHANHASSEN MN
700 AM CDT THU AUG 17 2017


NOTE: "FAIR" INDICATES FEW OR NO CLOUDS BELOW 12,000 FEET WITH NO
SIGNIFICANT WEATHER AND/OR OBSTRUCTIONS TO VISIBILITY. N/A MEANS
CURRENT SKY AND/OR WEATHER CONDITIONS ARE NOT AVAILABLE.

MNZ060>063-068>070-171300-
   Twin Cities Metro

CITY           SKY/WX    TMP DP  RH WIND       PRES   REMARKS
TWIN CITIES    CLOUDY    66  64  93 N9        29.49R
6HR MIN TEMP:  66; 6HR MAX TEMP:  72; 6HR PCP:  0.08;

ST PAUL        LGT RAIN  67  66  97 NE7       29.49R
CRYSTAL        CLOUDY    66  63  90 N6        29.50R
BLAINE         MOCLDY    66  66 100 NE3       29.51R FOG
LAKEVILLE      CLOUDY    64  64 100 W7        29.49R
EDEN PRAIRIE   MOCLDY    67  65  93 NW6       29.50R
6HR MIN TEMP:  67; 6HR MAX TEMP:  71; 6HR PCP:  0.07;

SOUTH ST PAUL  DRIZZLE   66  65  99 N8        29.47S
LAKE ELMO      RAIN      64  64 100 NE5       29.50R
$$
MNZ001>005-007-008-013>017-022>024-027-028-171300-
   Northwest Minnesota

CITY           SKY/WX    TMP DP  RH WIND       PRES   REMARKS
BEMIDJI        RAIN      60  59  97 N9        29.75R
HALLOCK        FOG       54  54 100 CALM      29.83S VSB 3/4
ROSEAU           N/A     59  54  82 N6        29.82S HAZE
WARROAD        MOCLDY    61  55  82 VRB8      29.82S
THIEF RVR FALL CLOUDY    63  61  94 N12       29.82R
CROOKSTON      CLOUDY    63  61  94 N10       29.82R
FOSSTON        CLOUDY    59  57  94 N12       29.78S
DETROIT LAKES  DRIZZLE   61  61 100 N17       29.76R
MOORHEAD       CLOUDY    61  61 100 NW17      29.79R
PARK RAPIDS    LGT RAIN  63  61  93 N14G20    29.72R
MAHNOMEN       CLOUDY    60  60  99 N14G20    29.77R FOG
$$
MNZ006-009>011-018-025>026-171300-
   North Central Minnesota

CITY           SKY/WX    TMP DP  RH WIND       PRES   REMARKS
BAUDETTE       CLOUDY    60  59  96 N9        29.79S
FLAG ISLAND    CLOUDY    61  57  88 NE5       29.81S
INTL FALLS     LGT RAIN  59  57  93 NE9       29.77S FOG
6HR MIN TEMP:  59; 6HR MAX TEMP:  61; 6HR PCP:  0.55;

WASKISH        CLOUDY    61  59  94 N6        29.77S
BIG FORK       LGT RAIN  59  57  94 N6        29.74R
LONGVILLE      LGT RAIN  61  61 100 N3        29.69S
GRAND RAPIDS   RAIN      59  58  96 N7        29.72R
CRANE LAKE     DRIZZLE   57  57 100 CALM      29.77S
ORR            LGT RAIN  57  55  94 CALM      29.73R
COOK           RAIN      59  57  94 CALM      29.74R
WALKER         DRIZZLE   60  59  97 N8        29.72S
$$
MNZ012-019>021-037-171300-
   Northeast Minnesota

CITY           SKY/WX    TMP DP  RH WIND       PRES   REMARKS
DULUTH         DRIZZLE   59  59 100 E16       29.63S FOG
6HR MIN TEMP:  59; 6HR MAX TEMP:  60; 6HR PCP:  0.36;

ELY            RAIN      57  57 100 NE9       29.72S
HIBBING        HVY RAIN  58  57  97 NE9       29.70S FOG
EVELETH        HVY RAIN  59  56  89 NE12G17   29.71F
DULUTH HARBOR  LGT RAIN  63  61  94 NE29G35   29.62S
GRAND MARAIS     N/A     61  58  90 NE12G20   29.68F
G MARAIS ARPRT RAIN      57  52  82 NE12      29.72F
$$
MNZ029>031-032-039>041-046>048-054>057-064-171300-
   West Central Minnesota

CITY           SKY/WX    TMP DP  RH WIND       PRES   REMARKS
FERGUS FALLS   CLOUDY    63  63 100 N14G21    29.75R FOG
WHEATON        CLOUDY    63  59  88 NW14G21   29.78R
MORRIS         CLOUDY    63  63 100 NW20      29.72R FOG
ALEXANDRIA     CLOUDY    64  64 100 NW12      29.72R
ELBOW LAKE     DRIZZLE   62  62 100 W16G22    29.74R
WADENA         CLOUDY    63  63 100 N8        29.71R
GLENWOOD       CLOUDY    64  63  94 NW13G18   29.70R
APPLETON       CLOUDY    64  61  88 NW17G25   29.72R
BENSON         CLOUDY    66  63  88 N14G21    29.72R
ORTONVILLE     CLOUDY    61  59  94 MISG      29.76R
MADISON        CLOUDY    64  64 100 NW14      29.74R
WILLMAR        MOCLDY    64  64 100 NW15G22   29.68R
$$
MNZ033>034-036-042>043-049>051-058-059-171300-
   Central Minnesota

CITY           SKY/WX    TMP DP  RH WIND       PRES   REMARKS
ST CLOUD       LGT RAIN  62  62 100 N17G24    29.58R FOG
6HR MIN TEMP:  62; 6HR MAX TEMP:  66; 6HR PCP:  0.32;

SAUK CENTRE    DRIZZLE   63  61  93 N15G21    29.67R
PAYNESVILLE    RAIN      64  63  97 NW14G21   29.65R
AITKIN         DRIZZLE   61  57  88 N13G18    29.64R
PINE RIVER     RAIN      61  59  94 N13       29.72R
BRAINERD       LGT RAIN  62  61  96 N12       29.66R FOG
STAPLES        DRIZZLE   61  61 100 N10G16    29.69R
LONG PRAIRIE   DRIZZLE   61  61 100 NW9       29.68R
LITTLE FALLS   RAIN      61  61 100 N7        29.63R
LITCHFIELD     RAIN      64  64 100 NW16G25   29.62R
BUFFALO        DRIZZLE   64  62  93 NW10G18   29.55R
MAPLE LAKE     RAIN      64  64  97 NW13G18   29.57R
HUTCHINSON     LGT RAIN  65  64  97 NW13G22   29.61R
$$
MNZ037-044-045-052-053-171300-
   East Central Minnesota

CITY           SKY/WX    TMP DP  RH WIND       PRES   REMARKS
PRINCETON      DRIZZLE   64  63  94 NW13      29.56R
MORA           RAIN      59  59 100 N3        29.58R
RUSH CITY      HVY RAIN  66  64  94 CALM      29.55R
MOOSE LAKE     CLOUDY    61  59  94 NE7       29.59S
HINCKLEY       CLOUDY    63  63 100 NE9       29.57R FOG
CLOQUET        CLOUDY    61  57  88 NE12G18   29.63R FOG
MCGREGOR       CLOUDY    61  59  94 N14       29.65R
$$
MNZ071>073-080-081-089-090-097-098-171300-
   Southwest Minnesota

CITY           SKY/WX    TMP DP  RH WIND       PRES   REMARKS
MONTEVIDEO     CLOUDY    64  64 100 N13G20    29.71R
GRANITE FALLS  CLOUDY    66  65  96 NW16G23   29.72R
CANBY          CLOUDY    63  61  92 W16G23    29.77R
MARSHALL       LGT RAIN  63  62  97 NW18G28   29.73R
REDWOOD FALLS  CLOUDY    66  63  90 NW17G28   29.67R
OLIVIA         CLOUDY    64  63  94 NW16G24   29.64R
PIPESTONE      CLOUDY    63  61  94 NW13G20   29.79R
WINDOM         CLOUDY    64  63  94 W15G22    29.72R
WORTHINGTON    LGT RAIN  63  62  97 W14G22    29.77R FOG
JACKSON        CLOUDY    64  61  88 W13G22    29.73R
TRACY          LGT RAIN  64  64  99 NW16G26   29.73R
SLAYTON        CLOUDY    63  58  85 W15       29.75R HAZE
$$
MNZ065>067-074>077-082>085-091>093-171300-
   South Central Minnesota

CITY           SKY/WX    TMP DP  RH WIND       PRES   REMARKS
MANKATO        LGT RAIN  65  63  93 NW18G30   29.58R
NEW ULM        CLOUDY    64  63  94 NW17G29   29.62R
ST JAMES       CLOUDY    66  63  88 W18G24    29.66R
FAIRMONT       CLOUDY    66  63  90 W18       29.69R
GLENCOE        CLOUDY    65  65 100 NW18G25   29.56R FOG
FARIBAULT      DRIZZLE   64  64 100 W15G22    29.52R
OWATONNA       DRIZZLE   64  63  94 W18G25    29.56R
WASECA         LGT RAIN  63  61  94 W20G30    29.59R
ALBERT LEA     CLOUDY    70  64  83 W12G25    29.62R
$$
MNZ078>079-086>088-094>096-171300-
   Southeast Minnesota

CITY           SKY/WX    TMP DP  RH WIND       PRES   REMARKS
ROCHESTER      CLOUDY    65  63  93 SW24G35   29.58S
6HR MIN TEMP:  65; 6HR MAX TEMP:  67;

RED WING       HVY RAIN  66  63  88 S14G21    29.45F
STANTON        CLOUDY    66  64  91 W14G21    29.46R
DODGE CENTER   LGT RAIN  64  63  94 SW21G28   29.56R
WINONA         PTCLDY    70  64  83 S8        29.57F
AUSTIN         CLOUDY    66  61  82 SW18G26   29.61S
PRESTON        CLOUDY    65  62  89 SW14G23   29.62F
$$
ABBREVIATIONS USED IN REMARKS
   TC - TEMPERATURES IN CELSIUS
  WCI - WIND CHILL INDEX
   HX - HEAT INDEX
  VSB - VISIBILITY
$$




USA.gov is the U.S. government's official web portal to all federal, state and local government web resources and services.